Wind_Speed
28 29 26 26 26 27 30 27 31 34 34 36 36 33 33 32 29 24 20 19 16 14 13 12 17 17 12 11 11 10 11 10 9 9 9 10 11 13 12 11 11 11 10 12 11 12 12 13 13
34 36 34 31 30 26 31 31 31 36 36 36 39 36 36 35 33 32 28 26 23 20 18 17 15 11 6 9 13 13 12 12 10 8 7 7 10 12 12 10 9 9 9 10 10 11 12 13 13
37 38 40 38 36 29 31 37 38 39 38 39 37 41 40 38 36 34 32 29 27 25 23 21 19 16 20 20 21 17 13 14 11 10 7 7 7 9 10 9 8 7 8 9 9 10 12 13 12
42 42 41 38 38 35 33 37 35 42 43 40 41 42 44 42 39 35 32 31 31 30 28 24 25 25 23 25 21 18 16 14 13 11 11 10 8 9 10 8 7 7 6 8 8 10 12 15 15
45 42 43 41 35 35 37 39 38 38 38 46 46 44 44 46 46 43 38 36 37 35 32 30 28 26 27 27 25 21 19 16 16 15 13 12 11 10 9 8 6 6 7 8 9 12 13 15 14
40 45 47 41 35 33 37 43 41 39 43 40 45 49 48 47 49 47 44 40 37 35 32 32 32 29 29 31 30 26 19 20 20 19 17 15 13 13 11 11 10 9 8 8 10 10 13 16 15
42 40 43 40 35 32 33 38 44 43 48 47 46 47 47 45 49 49 50 45 43 42 38 33 33 32 31 31 33 31 30 31 26 23 21 18 15 14 13 14 12 12 10 10 9 10 12 14 14
40 41 41 39 36 31 34 37 40 46 46 51 47 48 50 42 49 51 53 51 48 45 41 38 40 37 36 36 36 36 36 35 30 27 24 22 20 17 16 15 15 13 12 12 11 12 13 13 15
34 35 33 32 33 30 36 43 44 46 44 48 50 52 52 49 51 52 51 53 54 50 45 42 40 40 39 40 41 38 34 34 32 29 28 24 24 21 19 17 17 16 15 15 13 14 15 13 14
29 28 28 29 33 33 38 44 45 48 48 47 47 50 49 49 48 50 49 49 49 50 48 45 43 40 39 37 43 40 37 32 30 29 28 29 27 26 24 21 20 19 19 17 15 15 16 16 14
26 26 29 30 30 32 36 36 40 45 45 45 46 47 49 48 49 51 50 46 51 52 49 49 48 45 39 40 36 32 40 36 31 30 30 32 31 29 28 26 24 23 23 20 17 16 17 18 16
28 29 30 29 31 31 33 34 34 37 36 41 43 43 45 49 48 47 48 47 46 38 37 46 45 45 40 44 39 39 39 41 44 42 35 36 36 33 33 32 30 28 27 25 21 18 18 18 18
27 27 28 28 31 31 31 32 34 36 38 38 40 42 43 44 45 46 45 46 47 37 28 33 40 41 38 43 46 45 43 39 39 44 45 43 40 38 38 37 35 33 31 30 26 22 20 20 20
29 30 33 32 31 35 35 34 38 37 40 39 40 41 42 43 44 45 45 46 46 41 32 28 29 34 36 39 42 44 49 39 39 44 48 49 49 46 48 38 40 37 37 36 33 28 23 25 24
30 31 30 31 31 34 38 36 37 40 42 42 43 43 42 43 46 47 48 50 50 48 40 33 33 35 37 40 40 39 37 48 44 54 56 51 52 53 55 52 44 40 42 41 38 35 29 27 29
31 33 32 33 35 34 40 38 34 42 44 45 45 46 47 46 50 52 53 55 55 55 49 42 40 41 41 43 43 42 38 40 53 63 54 59 50 55 58 59 50 51 47 45 43 41 36 33 30
34 38 38 37 38 39 42 43 40 39 42 42 43 46 49 48 52 54 55 55 57 58 55 50 43 43 43 46 48 46 46 45 47 59 58 55 56 61 64 63 58 56 49 49 47 46 41 40 39
36 34 33 32 33 38 40 40 43 43 41 40 38 40 43 43 45 51 55 58 57 59 59 58 53 46 46 47 48 52 50 50 50 51 60 63 68 70 68 66 62 55 56 53 51 52 49 46 46
29 29 29 28 27 36 32 34 36 37 37 39 44 45 44 43 42 44 48 51 54 56 58 58 59 53 50 50 49 50 53 52 56 56 57 60 76 75 60 68 67 62 60 66 54 57 55 53 52
31 31 28 29 29 40 31 35 34 34 33 34 36 38 39 41 45 47 47 47 48 50 50 54 56 57 54 52 51 55 55 58 55 59 59 57 60 63 60 55 62 67 64 64 60 62 63 59 56
33 33 34 38 35 41 39 43 34 36 36 35 37 36 37 39 39 41 44 45 48 51 51 51 50 48 49 49 48 51 57 60 62 58 59 56 56 59 63 68 61 53 63 67 64 68 69 64 60
37 35 41 40 43 43 41 52 37 35 38 36 36 39 41 43 42 41 42 44 45 46 48 50 51 50 48 45 46 46 55 61 62 62 62 61 57 57 61 61 54 51 50 53 62 64 66 70 64
39 40 43 46 48 51 47 48 51 41 38 32 34 41 45 45 45 46 46 46 45 45 47 48 50 51 52 53 52 53 52 56 61 62 63 62 59 56 55 57 56 53 49 51 49 43 50 68 70
43 44 46 48 50 55 48 49 54 48 43 37 36 41 46 46 46 46 44 47 48 47 46 47 48 49 52 54 54 54 55 57 55 53 60 62 61 61 60 58 55 55 57 54 54 61 46 59 52
42 43 47 50 50 53 47 54 54 51 46 44 43 40 40 43 46 46 48 44 45 47 48 49 48 54 57 61 61 59 59 60 58 52 59 63 59 59 60 60 57 55 54 55 52 46 44 73 63
40 40 45 51 52 51 50 56 52 52 49 47 45 44 43 44 48 48 47 48 43 42 46 45 46 52 54 52 53 54 53 51 50 52 58 61 61 58 59 61 60 54 50 51 51 50 45 43 59
41 40 41 48 51 54 53 55 56 54 53 53 51 51 51 51 48 50 48 47 49 46 44 48 50 51 43 41 50 46 47 47 48 51 54 59 61 61 60 58 55 52 47 45 45 47 46 45 43
46 48 49 49 52 57 53 54 52 53 55 54 52 52 52 53 53 51 51 51 53 57 50 45 43 41 40 47 49 49 48 52 51 48 45 51 58 62 61 58 53 48 46 45 44 45 48 49 47
43 47 50 51 56 58 57 56 53 54 52 52 55 58 60 63 60 57 55 54 51 46 45 40 35 34 47 55 54 56 55 51 45 48 47 46 46 52 57 58 54 51 49 47 47 46 45 46 49
41 40 43 46 48 49 51 54 50 52 52 56 56 56 56 54 50 52 47 38 39 40 44 35 33 35 33 47 60 61 59 56 48 45 46 44 43 43 46 52 54 53 49 49 47 47 47 47 49
Wind_Direction
235 240 240 239 235 235 228 220 227 232 223 229 231 233 234 240 247 254 258 254 253 265 260 274 298 312 302 316 324 331 333 332 332 341 349 350 349 354 4 12 18 21 14 11 20 14 16 13 11
242 243 240 244 245 241 231 229 227 234 233 229 233 236 238 245 249 252 253 257 259 258 261 269 274 295 297 301 318 315 312 313 313 313 326 333 339 341 350 2 16 11 5 9 10 4 4 4 1
245 247 244 242 244 247 248 230 228 233 234 234 235 238 244 244 249 250 257 258 261 261 261 267 269 272 287 301 300 300 301 307 302 303 305 316 330 335 341 353 5 -0 358 4 353 356 353 352 353
241 241 244 245 246 245 250 253 234 232 235 238 236 236 241 245 246 249 250 257 259 263 263 262 266 269 276 286 295 296 295 300 297 296 297 304 316 322 327 338 352 345 334 337 339 343 342 344 342
241 243 243 243 246 243 243 249 252 252 243 242 240 237 235 240 246 246 247 251 257 261 264 266 264 269 275 280 283 291 291 296 292 282 288 291 297 305 308 315 323 317 310 321 329 333 334 338 332
242 242 241 245 248 243 241 244 248 246 259 257 250 244 239 237 240 247 248 249 254 255 256 262 269 272 272 277 282 283 281 289 292 285 280 281 288 297 303 308 308 299 298 303 317 328 332 330 329
245 244 246 244 246 241 241 241 243 246 252 251 255 257 253 256 248 244 246 247 248 249 250 252 258 264 271 273 276 279 281 284 282 282 278 277 278 281 290 299 300 296 292 293 302 317 324 323 326
243 244 245 247 246 243 241 241 244 244 242 249 248 254 257 254 253 252 251 250 251 251 253 256 258 257 260 265 269 270 275 279 275 275 275 274 277 278 281 287 294 295 292 289 294 302 307 315 318
236 240 244 244 242 236 232 234 236 245 243 246 250 248 254 252 249 250 253 255 256 256 256 259 260 263 260 261 264 266 265 270 271 265 269 270 272 272 272 277 285 290 290 287 292 297 300 304 308
241 240 238 237 234 231 231 238 239 241 243 246 249 257 257 257 255 254 253 255 260 260 260 258 258 259 256 256 251 251 257 253 251 251 257 262 262 267 267 270 275 282 286 287 288 288 293 300 304
247 244 240 238 236 235 238 240 242 246 248 248 251 254 260 260 262 265 264 258 255 261 260 262 249 246 246 252 250 250 242 244 247 247 250 256 259 260 263 263 263 272 277 282 287 291 291 297 301
251 252 252 249 248 243 242 244 244 250 251 252 253 253 255 262 263 265 267 269 261 256 259 255 257 245 250 244 244 244 247 240 243 249 247 250 254 255 257 259 257 259 266 273 278 285 292 293 296
250 251 249 247 249 248 247 249 247 250 251 248 250 252 252 255 261 263 265 262 263 264 256 253 254 256 255 244 253 248 238 238 243 245 245 247 247 245 248 252 255 255 256 261 267 271 281 287 288
251 249 252 249 247 249 244 238 244 243 248 248 249 250 253 255 259 263 267 265 268 271 265 255 247 252 253 260 258 250 246 236 233 238 238 239 242 243 245 242 246 250 254 257 259 262 266 274 278
254 256 258 261 258 255 254 250 252 245 243 245 246 248 250 251 256 258 260 261 262 262 259 249 244 243 253 256 257 257 252 248 239 233 229 226 232 240 246 245 234 238 247 252 254 256 256 263 268
261 261 260 259 258 259 259 255 251 252 252 251 245 244 245 246 248 249 254 258 258 260 257 253 245 241 242 245 251 257 257 238 237 247 243 228 227 234 239 242 237 232 236 241 248 251 251 255 261
259 260 260 261 266 265 264 261 255 253 258 258 257 256 258 258 253 258 258 260 261 263 265 262 254 253 249 245 246 250 253 253 246 244 251 248 231 230 234 233 237 233 232 238 241 246 245 249 252
259 262 265 266 264 264 265 266 265 261 256 253 255 259 260 260 257 255 256 260 264 266 267 267 264 255 252 250 245 243 245 250 250 248 247 250 249 240 232 238 233 229 233 230 238 242 242 244 248
264 265 267 269 269 267 268 267 269 268 267 265 261 257 254 253 254 257 258 255 259 266 270 276 278 275 265 258 256 249 245 243 246 248 248 249 249 255 243 240 239 232 227 234 230 240 242 243 245
265 268 271 265 266 268 265 267 266 269 270 267 266 266 266 265 262 258 256 258 262 261 264 267 269 271 271 268 262 256 250 246 243 245 249 249 251 252 250 251 246 251 234 230 230 234 238 237 243
267 272 268 269 261 264 271 265 266 266 270 270 270 270 269 269 266 263 263 263 259 257 256 257 259 260 262 265 262 256 252 251 249 246 246 248 247 251 253 257 256 247 243 239 237 242 242 240 240
270 274 273 273 275 275 270 279 272 273 272 270 268 267 267 266 265 261 257 257 256 256 256 256 253 252 252 255 258 258 250 249 251 252 249 248 247 247 251 250 249 248 256 256 246 251 256 247 243
278 274 276 279 280 281 278 279 283 272 269 268 269 268 266 267 266 264 264 264 262 260 258 256 255 253 255 257 255 258 253 247 249 253 252 253 251 250 249 251 252 256 256 262 261 266 268 256 257
277 278 278 277 277 276 284 284 280 282 283 276 264 260 265 266 269 271 267 266 268 266 264 263 261 260 259 259 261 263 263 257 254 257 255 250 253 254 254 254 254 256 257 258 263 257 254 253 252
278 279 280 276 277 281 281 278 280 288 290 285 276 267 266 270 270 272 270 267 265 264 263 260 254 254 255 258 262 263 263 264 261 259 255 254 251 252 259 258 256 253 254 253 254 261 267 257 254
269 270 271 278 278 277 276 278 285 288 290 289 286 281 273 267 264 269 271 268 259 261 261 255 251 252 258 247 252 256 255 257 255 254 252 252 252 251 254 258 258 255 256 258 256 255 256 255 256
285 281 276 274 277 280 282 284 286 289 290 289 290 288 285 281 275 273 267 262 261 261 256 259 254 251 255 243 238 238 243 246 251 250 254 254 254 255 256 257 259 264 262 258 257 254 252 252 254
291 286 280 281 283 281 280 282 283 286 288 291 290 288 286 283 281 278 270 265 268 262 268 257 250 246 247 244 239 243 244 244 249 249 252 251 251 252 253 253 254 256 257 255 255 255 254 253 249
273 276 280 282 279 281 284 285 286 287 288 288 286 286 285 284 283 280 276 272 271 266 250 251 246 242 239 235 241 244 246 248 249 253 259 251 249 250 252 253 252 251 251 251 250 252 254 252 250
277 272 270 271 277 279 278 281 283 286 288 286 287 285 284 283 278 283 265 260 255 258 255 238 244 251 249 244 232 233 240 247 252 261 266 263 256 250 249 252 255 255 252 251 251 250 248 249 248
Height
5861 5863 5867 5869 5875 5877 5879 5881 5879 5879 5882 5883 5882 5885 5886 5886 5888 5892 5893 5894 5896 5897 5898 5901 5903 5903 5904 5906 5906 5906 5906 5906 5907 5907 5907 5908 5907 5906 5906 5905 5904 5904 5904 5903 5902 5901 5899 5897 5896
5856 5859 5863 5865 5868 5872 5875 5876 5874 5874 5878 5878 5880 5882 5883 5884 5885 5888 5891 5891 5892 5894 5896 5897 5899 5901 5902 5904 5905 5906 5906 5906 5906 5906 5906 5906 5906 5906 5906 5906 5905 5905 5904 5904 5903 5902 5900 5898 5897
5850 5853 5858 5860 5863 5869 5868 5869 5870 5869 5871 5874 5877 5879 5879 5882 5882 5884 5885 5888 5890 5891 5894 5895 5897 5899 5900 5902 5903 5904 5905 5906 5906 5906 5905 5905 5905 5905 5905 5906 5906 5906 5905 5904 5904 5903 5901 5899 5897
5844 5847 5851 5854 5860 5863 5864 5863 5865 5862 5866 5869 5871 5873 5875 5877 5879 5880 5882 5884 5886 5888 5890 5892 5894 5895 5897 5899 5901 5902 5903 5903 5904 5905 5905 5905 5905 5904 5904 5904 5904 5905 5904 5904 5902 5901 5900 5898 5896
5838 5841 5843 5848 5853 5857 5857 5858 5859 5857 5863 5864 5863 5866 5871 5873 5874 5875 5878 5880 5882 5885 5886 5889 5890 5892 5894 5895 5897 5900 5901 5902 5902 5902 5903 5903 5903 5903 5902 5903 5903 5903 5904 5903 5902 5901 5899 5897 5895
5832 5836 5838 5841 5846 5850 5852 5851 5852 5854 5854 5859 5861 5858 5862 5867 5869 5872 5875 5877 5878 5881 5884 5885 5887 5889 5890 5891 5892 5895 5898 5899 5900 5900 5900 5900 5901 5901 5902 5902 5902 5902 5902 5901 5900 5900 5899 5897 5895
5828 5829 5832 5836 5841 5842 5845 5846 5844 5849 5848 5851 5852 5854 5858 5863 5865 5868 5867 5870 5873 5875 5879 5881 5883 5884 5886 5887 5889 5890 5892 5895 5897 5898 5899 5898 5898 5898 5899 5900 5900 5901 5901 5900 5899 5898 5897 5897 5895
5821 5822 5824 5830 5834 5838 5837 5840 5840 5839 5844 5840 5844 5847 5850 5856 5856 5858 5861 5864 5866 5869 5873 5877 5879 5880 5881 5882 5884 5885 5887 5888 5892 5894 5895 5896 5896 5896 5897 5897 5898 5898 5899 5898 5897 5897 5895 5895 5894
5815 5817 5821 5825 5825 5829 5827 5828 5830 5832 5836 5835 5836 5836 5839 5843 5846 5850 5855 5857 5859 5863 5867 5870 5873 5875 5876 5877 5878 5879 5881 5883 5886 5889 5890 5892 5893 5894 5894 5894 5895 5895 5896 5896 5896 5895 5894 5893 5892
5808 5812 5814 5816 5816 5818 5818 5822 5824 5826 5828 5829 5830 5828 5831 5836 5838 5841 5847 5851 5853 5856 5861 5864 5865 5866 5868 5870 5870 5873 5876 5878 5880 5883 5885 5886 5888 5890 5891 5891 5891 5891 5892 5892 5893 5892 5892 5891 5890
5803 5806 5805 5807 5811 5813 5814 5818 5819 5821 5824 5824 5827 5827 5825 5828 5830 5833 5837 5844 5846 5848 5852 5854 5855 5857 5860 5863 5864 5865 5869 5872 5874 5877 5879 5880 5882 5884 5886 5886 5887 5887 5886 5888 5889 5889 5889 5889 5888
5797 5799 5800 5802 5804 5809 5810 5813 5816 5816 5821 5819 5820 5821 5822 5819 5822 5825 5827 5829 5831 5839 5842 5844 5846 5848 5850 5853 5855 5857 5861 5864 5867 5869 5871 5874 5876 5878 5880 5880 5881 5881 5881 5882 5884 5885 5885 5885 5885
5791 5792 5794 5795 5797 5802 5804 5807 5808 5810 5811 5812 5812 5813 5814 5814 5813 5816 5818 5819 5820 5830 5835 5838 5838 5838 5840 5844 5846 5848 5850 5854 5859 5862 5865 5866 5869 5869 5871 5872 5874 5875 5875 5876 5878 5880 5881 5881 5881
5785 5786 5786 5789 5791 5793 5795 5798 5798 5802 5799 5802 5803 5806 5807 5809 5809 5810 5810 5813 5813 5818 5825 5828 5830 5830 5833 5833 5835 5838 5842 5843 5845 5849 5853 5855 5858 5860 5860 5862 5866 5867 5869 5869 5871 5875 5876 5876 5876
5779 5781 5782 5783 5785 5786 5786 5792 5791 5789 5790 5792 5794 5796 5798 5801 5800 5802 5802 5801 5803 5805 5810 5817 5821 5822 5824 5825 5825 5827 5831 5837 5837 5833 5835 5838 5846 5849 5850 5851 5853 5855 5859 5861 5863 5866 5870 5871 5871
5774 5774 5776 5776 5777 5779 5779 5786 5785 5780 5782 5783 5784 5785 5787 5790 5791 5793 5792 5793 5792 5793 5799 5805 5809 5813 5816 5817 5817 5818 5821 5822 5823 5822 5825 5825 5829 5838 5840 5842 5842 5842 5846 5851 5855 5857 5861 5864 5864
5767 5765 5766 5769 5768 5769 5769 5772 5773 5773 5775 5777 5777 5778 5779 5783 5784 5785 5785 5784 5784 5784 5787 5793 5799 5802 5805 5807 5809 5810 5812 5812 5812 5811 5810 5816 5818 5822 5827 5828 5833 5832 5836 5841 5845 5849 5850 5854 5857
5757 5758 5759 5761 5762 5758 5758 5760 5761 5764 5767 5768 5770 5770 5771 5774 5777 5776 5776 5776 5775 5776 5777 5779 5785 5790 5792 5794 5795 5798 5801 5802 5803 5805 5805 5804 5806 5811 5811 5817 5819 5821 5826 5828 5833 5838 5839 5843 5847
5753 5753 5754 5754 5756 5748 5752 5751 5751 5752 5754 5758 5759 5761 5762 5763 5764 5764 5765 5766 5767 5768 5767 5769 5770 5775 5779 5782 5783 5785 5787 5789 5791 5793 5793 5796 5796 5798 5803 5808 5806 5808 5813 5818 5820 5825 5830 5833 5835
5745 5745 5747 5748 5748 5738 5746 5743 5744 5745 5745 5746 5747 5747 5749 5751 5752 5753 5754 5756 5758 5758 5760 5760 5761 5762 5764 5768 5773 5773 5775 5776 5777 5778 5780 5783 5784 5785 5791 5794 5793 5797 5798 5802 5807 5811 5814 5820 5824
5737 5738 5737 5733 5737 5732 5733 5730 5739 5738 5737 5738 5738 5739 5740 5740 5741 5742 5741 5743 5744 5746 5747 5748 5748 5750 5751 5752 5755 5759 5760 5761 5763 5767 5769 5771 5773 5775 5777 5779 5782 5786 5788 5794 5798 5804 5804 5810 5815
5728 5729 5724 5725 5723 5724 5725 5712 5729 5731 5729 5731 5731 5728 5728 5726 5727 5728 5729 5730 5731 5733 5733 5734 5736 5737 5738 5740 5742 5743 5747 5748 5750 5753 5755 5757 5759 5763 5764 5767 5769 5771 5777 5782 5791 5796 5798 5803 5805
5720 5719 5716 5713 5711 5709 5712 5712 5707 5718 5720 5724 5721 5717 5713 5714 5714 5715 5716 5717 5719 5720 5719 5720 5721 5722 5724 5726 5729 5731 5733 5735 5736 5738 5740 5741 5744 5748 5751 5753 5757 5761 5767 5769 5775 5780 5784 5788 5790
5712 5710 5708 5705 5702 5695 5703 5701 5694 5699 5704 5709 5709 5704 5699 5698 5699 5700 5703 5702 5703 5704 5705 5706 5707 5709 5710 5711 5714 5717 5719 5721 5723 5725 5725 5727 5730 5733 5736 5741 5745 5749 5754 5759 5762 5767 5772 5776 5779
5704 5702 5696 5692 5692 5686 5691 5684 5684 5686 5688 5688 5688 5692 5692 5690 5689 5689 5688 5688 5689 5689 5689 5689 5691 5693 5694 5696 5699 5704 5707 5707 5711 5713 5713 5714 5719 5721 5722 5726 5733 5740 5742 5747 5751 5753 5754 5762 5769
5697 5694 5688 5680 5678 5678 5678 5670 5675 5675 5674 5673 5673 5674 5675 5677 5675 5675 5675 5674 5674 5675 5673 5674 5677 5678 5678 5680 5686 5690 5692 5694 5696 5697 5699 5703 5707 5710 5712 5715 5719 5725 5729 5732 5737 5741 5745 5748 5755
5684 5683 5680 5671 5669 5663 5665 5662 5661 5662 5661 5658 5657 5656 5656 5657 5657 5658 5659 5659 5659 5659 5660 5659 5661 5662 5664 5667 5672 5674 5677 5680 5681 5684 5688 5691 5694 5697 5700 5705 5709 5711 5715 5719 5724 5728 5733 5737 5741
5671 5668 5665 5663 5658 5650 5653 5651 5651 5650 5647 5647 5646 5643 5641 5639 5637 5637 5640 5642 5643 5643 5644 5645 5646 5649 5653 5655 5659 5663 5666 5666 5670 5673 5676 5678 5680 5683 5687 5692 5697 5701 5705 5708 5712 5716 5720 5724 5728
5660 5654 5652 5652 5647 5643 5638 5638 5639 5636 5637 5635 5631 5628 5625 5621 5621 5621 5623 5623 5624 5625 5626 5630 5633 5636 5639 5641 5645 5650 5652 5656 5659 5662 5663 5664 5667 5669 5673 5678 5684 5689 5693 5696 5701 5705 5708 5712 5716
5643 5644 5643 5638 5637 5632 5629 5627 5628 5626 5625 5618 5616 5613 5610 5607 5606 5605 5606 5608 5609 5610 5614 5614 5618 5622 5626 5629 5628 5631 5638 5643 5647 5650 5650 5650 5653 5657 5661 5664 5670 5675 5680 5684 5689 5693 5697 5701 5705